« Back
NWS Peachtree City, Ga » Text Product » GA Regional Weather Roundup


Printer-friendly Version
Current Version              Previous Versions:   1  2  3  4  5  6  7  8  9  

Regional Weather Roundup

131
ASUS42 KFFC 230403
RWRGA
WEATHER ROUNDUP FOR GEORGIA
NATIONAL WEATHER SERVICE PEACHTREE CITY GA
1200 AM EDT THU OCT 23 2014

NOTE: "FAIR" INDICATES FEW OR NO CLOUDS BELOW 12,000 FEET WITH NO
SIGNIFICANT WEATHER AND/OR OBSTRUCTIONS TO VISIBILITY.

* = USE WITH CAUTION. THE STATIONS MARKED WITH AN ASTERISK MAY NOT
REPORT WEATHER SUCH AS PRECIPITATION, FOG, OR THUNDER AND ARE NOT
QUALITY CONTROLLED BY NWS.

THE REMARK "TC" DENOTES TEMPERATURE READING IN DEGREES CELSIUS.

GAZ001>058-230500-
NORTH GEORGIA

CITY           SKY/WX    TMP DP  RH WIND       PRES   REMARKS
ATLANTA        CLEAR     52  42  69 N8        30.11S
ATHENS         CLEAR     45  43  93 CALM      30.12R
CHAMBLEE       CLEAR     48  41  76 NW3       30.12S
PEACHTREE CITY CLEAR     47  44  90 CALM      30.13S
ROME           CLEAR     51  42  71 N6        30.16R
WEST ATLANTA   CLEAR     50  41  71 NE3       30.13R
GAINESVILLE    CLEAR     51  42  71 CALM      30.13S
CARTERSVILLE   CLEAR     50  41  71 CALM      30.15S


CITY           SKY/WX    TMP DP  RH WIND       PRES   REMARKS
DALTON*        CLEAR     46  43  87 N14       30.17S
MARIETTA       CLEAR     51  42  72 NW3       30.12S
$$

GAZ059>098-102>109-230500-
CENTRAL GEORGIA

CITY           SKY/WX    TMP DP  RH WIND       PRES   REMARKS
AUGUSTA-BUSH   CLEAR     47  41  80 N5        30.11R
AUGUSTA-DANIEL CLEAR     55  42  61 N6        30.11S
COLUMBUS       CLEAR     55  43  63 N7        30.11S
MACON          CLEAR     45  44  97 CALM      30.11R
ROBINS AFB     CLEAR     47  46  93 N2        30.10R


CITY           SKY/WX    TMP DP  RH WIND       PRES   REMARKS
LAGRANGE*      CLEAR     55  46  71 CALM      30.12F
SYLVANIA*      CLEAR     52  50  95 CALM      30.09F
MILLEDGEVILLE* PTCLDY    50  50 100 CALM      30.11R
$$

GAZ099>101-110>166-230500-
SOUTH GEORGIA

CITY           SKY/WX    TMP DP  RH WIND       PRES   REMARKS
SAVANNAH       CLEAR     51  47  86 CALM      30.08S
VALDOSTA       CLEAR     49  44  83 CALM      30.08R
ALMA           CLEAR     47  45  93 CALM      30.08S
ST SIMONS      CLEAR     54  50  86 CALM      30.07S
FT STEWART     CLEAR     49  45  84 CALM      30.06S
ALBANY         CLEAR     52  47  83 N3        30.11R
HUNTER AFB     CLEAR     55  46  72 N5        30.05S
MOODY AFB      CLEAR     53  46  78 CALM      30.07S
BRUNSWICK      CLEAR     50  46  87 CALM      30.08S


CITY           SKY/WX    TMP DP  RH WIND       PRES   REMARKS
BAINBRIDGE*    CLEAR     54  48  82 CALM      30.09S
MOULTRIE*      CLEAR     55  50  82 CALM      30.09S
VIDALIA*       CLEAR     52  45  76 CALM      30.09S
WAYCROSS*      CLEAR     52  50  95 CALM      30.07S
DOUGLAS*       CLEAR     57  45  62 NE5       30.09F
$$



USA.gov is the U.S. government's official web portal to all federal, state and local government web resources and services.